User: anonymous   Login
Location: Unspecified
(0.0000°N, 0.0000°E)
Time: 13:46:11
(UTC+00:00)
Language:

COSMOS 2452 - Orbit

View from above orbital plane
View from above orbital plane
View from above satellite
View from above satellite

Ground track
Ground track

The orbit data is extracted from the following two-line orbital elements,

1 35499U 09036B   17323.91970872  .00000001  00000-0 -65630-4 0  9993
2 35499  82.4925 229.5663 0016059 124.9695 235.2892 12.42906241379890
Epoch (UTC): 19 November 2017 22:04:22
Eccentricity: 0.0016059
inclination: 82.4925°
perigee height: 1481 km
apogee height: 1507 km
right ascension of ascending node: 229.5663°
argument of perigee: 124.9695°
revolutions per day: 12.42906241
mean anomaly at epoch: 235.2892°
orbit number at epoch: 37989

The dashed part of the orbit path shows where the satellite is in the earth's shadow,  

DLR